Driggs, ID

10:19 PM MDT on June 25, 2017 (GMT -0600)
Driggs

Weather History for KDIJ - December, 2013

Change the Weather History Date:

Thursday, December 12, 2013

  Actual Average (KJAC) Record (KJAC)
Temperature  
Mean Temperature 13 °F -  
Max Temperature 26 °F 25 °F 41 °F (1977)
Min Temperature 0 °F 0 °F -25 °F (1985)
Degree Days  
Heating Degree Days 52    
Moisture  
Dew Point 4 °F    
Average Humidity 80    
Maximum Humidity 88    
Minimum Humidity 58    
Precipitation  
Precipitation 0.00 in - - ()
Sea Level Pressure  
Sea Level Pressure 30.46 in    
Wind  
Wind Speed 2 mph (East)    
Max Wind Speed 6 mph    
Max Gust Speed -    
Visibility 10 miles    
Events      
Averages and records for this station are not official NWS values.
T = Trace of Precipitation, MM = Missing Value Source: NWS Daily Summary

Daily Weather History Graph

Daily Weather History Graph

Search for Another Location

Airport or City:

Trip Planner

Search our weather history database for the weather conditions in past years. The results will help you decide how hot, cold, wet, or windy it might be!

Date:

Astronomy

Dec. 12, 2013 Rise Set
Actual Time 7:49 AM MST 4:47 PM MST
Civil Twilight 7:16 AM MST 5:20 PM MST
Nautical Twilight 6:40 AM MST 5:56 PM MST
Astronomical Twilight 6:05 AM MST 6:31 PM MST
Moon 2:02 PM MST (12/12) 3:08 AM MST (12/12)
Length of Visible Light 10h 03m
Length of Day
8h 58m
Waxing Gibbous, 81% of the Moon is Illuminated
Dec 12
Waxing Gibbous
Dec 17
Full
Dec 25
Last Quarter
Jan 1
New
Jan 7
First Quarter

Hourly Weather History & Observations

Time (MST) Temp. Windchill Dew Point Humidity Pressure Visibility Wind Dir Wind Speed Gust Speed Precip Events Conditions
12:56 AM 3.0 °F - -0.9 °F 84% 30.61 in 10.0 mi Calm Calm - N/A   Clear
1:56 AM -0.9 °F -11.0 °F -4.9 °F 83% 30.60 in 10.0 mi NE 4.6 mph - N/A   Clear
2:56 AM 3.0 °F -8.0 °F 0.1 °F 88% 30.58 in 10.0 mi SE 5.8 mph - N/A   Clear
3:56 AM 0.1 °F -9.7 °F -4.0 °F 83% 30.60 in 10.0 mi East 4.6 mph - N/A   Clear
4:56 AM 0.1 °F -7.7 °F -4.0 °F 83% 30.62 in 10.0 mi ENE 3.5 mph - N/A   Clear
5:56 AM 3.0 °F -4.4 °F 0.1 °F 88% 30.59 in 10.0 mi ESE 3.5 mph - N/A   Clear
6:56 AM 1.0 °F -6.7 °F -2.9 °F 83% 30.61 in 10.0 mi East 3.5 mph - N/A   Clear
7:56 AM 2.1 °F - -1.8 °F 83% 30.58 in 10.0 mi Calm Calm - N/A   Clear
8:56 AM 7.2 °F 0.3 °F 3.0 °F 83% 30.56 in 10.0 mi East 3.5 mph - N/A   Clear
9:56 AM 11.1 °F - 8.1 °F 87% 30.53 in 10.0 mi Calm Calm - N/A   Clear
10:56 AM 19.0 °F - 13.1 °F 78% 30.51 in 10.0 mi Calm Calm - N/A   Clear
11:56 AM 19.0 °F 12.3 °F 12.0 °F 74% 30.46 in 10.0 mi NW 4.6 mph - N/A   Clear
12:56 PM 21.0 °F - 13.1 °F 71% 30.41 in 10.0 mi Calm Calm - N/A   Clear
1:56 PM 26.1 °F - 13.1 °F 58% 30.38 in 10.0 mi Calm Calm - N/A   Clear
2:56 PM 22.1 °F 17.4 °F 14.0 °F 71% 30.36 in 7.0 mi Variable 3.5 mph - N/A   Clear
3:56 PM 21.0 °F - 12.0 °F 68% 30.36 in 10.0 mi Calm Calm - N/A   Clear
4:56 PM 15.1 °F 7.7 °F 8.1 °F 74% 30.38 in 10.0 mi ESE 4.6 mph - N/A   Clear
5:56 PM 10.0 °F 1.8 °F 6.1 °F 84% 30.37 in 10.0 mi East 4.6 mph - N/A   Clear
6:56 PM 9.1 °F - 5.0 °F 83% 30.37 in 10.0 mi Calm Calm - N/A   Clear
7:56 PM 2.1 °F -5.4 °F -1.8 °F 83% 30.39 in 10.0 mi ENE 3.5 mph - N/A   Clear
8:56 PM 5.0 °F - 1.0 °F 84% 30.36 in 10.0 mi Calm Calm - N/A   Clear
9:56 PM 9.1 °F 0.8 °F 6.1 °F 87% 30.30 in 10.0 mi East 4.6 mph - N/A   Clear
10:56 PM 11.1 °F 3.1 °F 7.2 °F 84% 30.24 in 10.0 mi ESE 4.6 mph - N/A   Clear
11:56 PM 7.2 °F - 4.1 °F 87% 30.25 in 10.0 mi Calm Calm - N/A   Partly Cloudy